Погода в Соледаре

Украина / Донецкая область     48°41′44″N   38°03′57″E
темп.,
°C
ветер,
м/с
пор.,
м/с
влажн.,
%
обл.,
%
осадки,
мм/ч
давл.,
гПа
погр.,
м
18 мая, вт
вт1800:00+16ююз61484100 0.1 1007460
03:00+15ю359294 0.2 1007203
06:00+15ююз379494 0.6 1006286
09:00+16ююз5784100 1.1 1007550
12:00+21юз5660100 0.9 10061523
15:00+21ююз6755100 1.2 10051698
18:00+19ююз69715 1.3 1006959
21:00+14ю410830 1.4 1006236
19 мая, ср
ср1900:00+13ю4109024 0.0 1007308
03:00+14ююв4989100 0.0 1006355
06:00+13юв3892100 0.3 1007325
09:00+14ююв3493100 3.6 1006317
12:00+12зюз51094100 11.9 1007573
15:00+17ююз687192 14.4 10061236
18:00+15ююз61177100 1.9 1006463
21:00+13ю4118799 2.4 1007291
20 мая, чт
чт2000:00+12ю51096100 0.0 1007362
03:00+13ююз4995100 0.1 1007559
06:00+12юз61193100 0.1 1008644
09:00+12юз61090100 0.3 1010658
12:00+17зюз7116628 0.1 10111644
15:00+18зюз5864100 0.2 1011628
18:00+19з3562100 0.1 1012935
21:00+15ююв1169100 0.1 101311
21 мая, пт
пт2100:00+13ссв018120 0.0 101410
03:00+12всв1188100 0.0 101411
06:00+13всв238683 0.0 101476
09:00+18в566798 0.0 1014492
12:00+20всв6762100 0.0 1012843
15:00+21в6970100 0.0 1012656
18:00+21всв5970100 0.0 1011475
21:00+17всв4128185 0.0 1011280
22 мая, сб
сб2200:00+18в6156989 0.0 1009403
03:00+16в5127784 0.0 1008302
06:00+15в498362 0.0 1008243
09:00+20вюв45642 0.0 1009533
12:00+24в3457100 0.1 1009829
15:00+26вюв455498 0.1 10091075
18:00+24вюв3370100 0.0 100955
21:00+20юв1284100 0.0 100916